Flag for Germany Weather past 2 weeks in Ansbach, Bavaria, Germany

Now
52 °F

Passing clouds.


Feels Like: 49 °F
Forecast: 43 / 67 °F
Wind: 7 mph from Northeast

Location: Ansbach / Katterbach

Current Time: May 23, 2015 at 1:16:19 AM

Latest Report: May 23, 2015 at 12:58 AM


Visibility: N/A

Pressure: 30.19 "Hg

Humidity: 58%

Dew point: 37 °F

Location of AnsbachLocation

Historic Weather in Ansbach — Graph

°F

Ansbach temperature yesterday

Maximum temperature yesterday: 65 °F (at 4:58 PM)
Minimum temperature yesterday: 43 °F (at 3:58 AM)
Average temperature yesterday: 54 °F

Past Weeks' High & Low Weather Summary

 TemperatureHumidityPressure
High80 °F (May 12, 4:58 PM)100% (May 10, 1:58 AM)30.38 "Hg (May 10, 1:58 AM)
Low41 °F (May 21, 12:58 AM)31% (May 22, 4:58 PM)29.74 "Hg (May 19, 1:58 AM)
Average57 °F67%30.10 "Hg
* Reported May 7 11:58 PM — May 22 11:58 PM, Ansbach, Weather by CustomWeather, © 2015

Note: Actual official high and low records may vary slightly from our data, if they occured in-between our weather recording intervals... More about our weather records

Advertising

Ansbach weather history for previous 24 hours

 ConditionsComfort  
Time TempWeatherWind HumidityBarometerVisibility
11:58 PM
Fri, May 22
53 °FClear.7 mph55%30.20 "HgN/A
10:58 PM55 °FOvercast.7 mph47%30.19 "HgN/A
9:58 PM55 °FScattered clouds.5 mph44%30.20 "HgN/A
8:58 PM58 °FPartly sunny.5 mph43%30.20 "HgN/A
7:58 PM61 °FSunny.7 mph36%30.20 "HgN/A
6:58 PM63 °FScattered clouds.7 mph32%30.21 "HgN/A
5:58 PM62 °FScattered clouds.10 mph32%30.22 "HgN/A
4:58 PM65 °FPassing clouds.7 mph31%30.23 "HgN/A
3:58 PM63 °FPassing clouds.8 mph34%30.25 "HgN/A
2:58 PM63 °FSunny.12 mph33%30.27 "HgN/A
1:58 PM61 °FSunny.1 mph36%30.29 "HgN/A
12:58 PM60 °FSunny.7 mph37%30.30 "HgN/A
11:58 AM59 °FSunny.7 mph39%30.33 "HgN/A
10:58 AM58 °FSunny.7 mph41%30.34 "HgN/A
9:58 AM56 °FSunny.7 mph51%30.35 "HgN/A
8:58 AM53 °FSunny.7 mph56%30.35 "HgN/A
7:58 AM50 °FSunny.6 mph58%30.35 "HgN/A
6:58 AM46 °FSunny.5 mph62%30.35 "HgN/A
5:58 AM43 °FClear.6 mph68%30.34 "HgN/A
4:58 AM43 °FClear.6 mph68%30.34 "HgN/A
3:58 AM43 °FClear.7 mph71%30.34 "HgN/A
2:58 AM44 °FClear.6 mph65%30.36 "HgN/A
1:58 AM45 °FClear.6 mph61%30.35 "HgN/A
Weather by CustomWeather, © 2015

See weather overviewHow to use our weather pages